San Jon, NM (88434)

3:19 AM MDT on July 29, 2016 (GMT -0600)
Tucumcari Municipal | | Change Station

Elev 4065 ft 35.18 °N, 103.60 °W | Updated 26 minutes ago

Clear
Clear
77 °F
Feels Like 77 °F
N
9
Wind Variable Wind from SW

Today
High -- | Low -- °F
--% Chance of Precip.
Yesterday
High -- | Low -- °F
Precip. -- in
Pressure 29.85 in
Visibility 10.0 miles
Clouds Clear
Dew Point 58 °F
Humidity 52%
Rainfall 0.00 in
Snow Depth Not available.
6:00 AM 7:58 PM
Waning Crescent, 23% visible
METAR KTCC 290853Z AUTO 23008KT 10SM CLR 25/14 A3008 RMK AO2 SLP108 T02500144 51004
Pressure 29.85 in
Visibility 10.0 miles
Clouds Clear
Dew Point 58 °F
Humidity 52%
Rainfall 0.00 in
Snow Depth Not available.
6:00 AM 7:58 PM
Waning Crescent, 23% visible
METAR KTCC 290853Z AUTO 23008KT 10SM CLR 25/14 A3008 RMK AO2 SLP108 T02500144 51004

10-Day Weather Forecast

Almanac

Astronomy

Jul. 29, 2016 Rise Set
Actual Time
Civil Twilight
Nautical Twilight
Astronomical Twilight
Moon
Length of Visible Light
Length of Day
Tomorrow will be .
, % of the Moon is Illuminated

Today's Extremes

State Highs State Lows

Community

WunderPhotos

Upload Photos

1,928,300 photos uploaded!

WunderBlog® & News

Nearby

Air Quality

  Air Quality AQ Index Pollutant
Not available.

Snow Depth

Station Depth Elevation

Earthquake Activity

City Distance Mag. Time & Date
Minimum magnitude displayed is 2.5.

Coastal Water Temperatures

Place Temperature

Stations

Nearby Weather Stations

Station Location Temp. Windchill Dew Point Humidity Wind Precip. Elev Updated Type
                   

Watches & Warnings

There are currently no watches in effect.